Wind_Speed
27 28 27 28 30 30 34 34 31 29 35 42 40 41 42 44 44 44 43 44 44 44 44 47 48 50 49 52 52 49 49 50 50 51 51 50 52 50 50 49 48 46 45 49
31 31 32 35 39 39 38 38 37 36 39 43 41 37 37 38 34 34 34 35 33 34 37 40 43 44 45 46 47 50 51 52 53 53 52 52 53 52 53 54 54 51 53 52
27 25 32 32 33 32 31 32 31 36 36 40 34 36 35 36 34 35 37 33 35 38 39 43 47 46 46 45 44 47 48 49 51 52 53 53 55 54 55 55 53 51 51 53
32 30 33 30 32 33 33 31 36 38 36 39 36 40 34 37 36 39 39 37 39 41 46 50 52 49 49 51 49 48 49 50 50 51 52 53 55 56 56 56 55 53 53 56
28 33 35 34 32 37 35 36 39 38 37 40 41 44 38 36 39 39 41 39 41 46 54 50 50 52 52 53 54 53 53 53 53 54 54 55 56 57 56 58 58 58 57 56
34 38 39 33 38 41 35 39 38 39 39 45 39 42 37 31 32 32 37 40 45 54 50 50 54 54 56 57 57 58 57 54 57 58 59 60 60 59 60 60 59 59 60 58
35 37 38 38 38 38 36 36 37 37 33 41 28 31 29 26 37 41 35 36 48 50 43 51 51 52 55 56 57 58 59 59 60 62 64 64 64 65 65 64 61 60 60 60
42 41 39 36 40 38 36 32 33 38 34 34 32 36 32 30 42 48 45 41 45 48 46 45 49 52 52 56 57 58 59 60 60 61 65 67 68 68 68 68 65 63 62 62
26 29 34 36 39 41 37 38 32 45 46 47 41 40 36 29 32 45 49 45 33 39 40 45 49 51 53 54 57 59 62 62 63 63 64 65 67 70 70 68 68 66 64 66
24 27 28 32 36 36 39 38 38 39 44 44 34 24 18 28 34 41 51 51 51 44 42 43 47 50 53 53 54 59 61 61 62 63 62 63 65 66 67 68 68 65 65 66
24 27 25 31 35 38 41 46 44 43 48 49 48 40 30 40 46 44 48 50 54 57 52 47 44 49 52 52 53 55 57 59 59 65 62 64 65 65 67 68 68 69 69 69
30 30 32 29 33 35 39 38 38 37 39 39 42 43 34 43 43 44 48 51 55 57 51 52 50 51 51 49 52 52 52 54 56 58 61 63 67 69 69 70 70 70 72 72
29 35 37 36 34 31 36 39 39 40 38 41 41 39 43 44 44 46 50 53 57 54 52 55 52 51 51 50 50 49 49 50 50 49 49 52 54 59 63 63 65 68 71 70
33 34 38 40 37 27 27 30 35 37 41 42 42 43 42 46 47 45 50 57 56 52 55 53 52 50 49 48 48 47 45 45 46 45 43 42 41 44 48 51 55 60 63 65
38 37 33 36 38 37 41 46 46 44 41 44 41 42 42 42 41 48 53 54 53 52 54 51 50 48 45 45 46 46 45 43 42 43 46 46 42 40 42 42 49 51 53 55
40 34 31 30 30 31 31 32 32 33 35 37 38 38 32 33 40 43 44 41 44 46 48 47 49 48 49 48 46 47 48 46 45 43 41 41 41 39 38 45 52 56 50 56
32 29 22 20 26 28 27 24 24 26 25 24 25 23 29 32 38 38 37 38 41 44 47 49 50 50 50 52 50 50 48 48 52 51 49 46 44 40 40 42 47 55 54 50
24 21 22 26 27 25 18 22 22 21 18 20 22 26 29 33 33 31 31 38 42 46 50 54 56 57 57 55 54 53 51 48 48 50 49 47 47 44 37 38 34 42 46 42
19 20 20 20 18 18 18 19 21 15 15 22 21 23 25 26 28 26 36 43 48 52 54 56 57 56 55 53 50 49 45 43 41 42 45 48 50 51 49 40 35 48 46 45
21 20 22 23 21 18 19 17 19 19 21 21 20 22 24 27 32 34 40 42 46 50 52 52 53 53 53 53 52 47 42 38 36 37 39 42 47 50 48 46 43 41 44 45
19 19 20 20 19 18 19 18 20 22 23 19 19 22 26 31 34 34 38 40 43 43 39 40 39 42 43 45 48 48 44 40 38 37 35 38 39 39 42 48 50 51 52 52
22 19 18 18 19 20 20 19 19 19 21 18 19 24 30 29 32 34 36 38 42 41 38 40 36 32 31 32 36 40 36 41 39 39 37 37 37 40 44 43 48 52 54 56
18 17 21 24 21 21 21 22 24 22 17 18 22 25 28 29 30 35 36 38 42 35 37 36 37 35 33 32 27 25 29 34 35 36 39 41 42 41 41 41 43 50 55 58
22 21 22 24 27 31 35 33 24 17 16 19 23 26 29 29 31 34 32 41 37 30 32 35 33 31 30 27 23 24 26 29 31 34 38 42 43 39 40 42 44 43 50 54
25 25 22 23 24 26 29 21 15 14 16 19 24 29 30 31 33 31 38 37 31 33 35 33 33 30 28 25 21 19 21 24 26 29 32 35 36 35 36 38 37 40 45 48
22 22 20 17 17 18 18 15 13 13 17 22 26 26 28 32 32 29 29 32 32 36 33 32 37 29 27 26 23 23 24 25 29 32 34 32 33 31 35 42 42 43 47 50
Wind_Direction
240 241 242 244 245 243 242 249 253 251 253 260 257 257 258 257 261 263 263 263 262 264 266 266 265 267 260 259 259 257 256 258 260 260 260 259 261 262 264 264 261 256 259 261
238 242 244 244 248 252 254 258 258 259 256 259 259 260 259 262 264 265 263 263 268 266 263 262 262 262 263 262 263 262 262 261 261 262 262 262 262 260 260 263 262 259 256 255
238 236 238 243 247 249 249 251 252 252 253 261 263 265 266 265 264 264 263 265 263 263 262 261 261 263 263 265 263 263 262 261 260 261 263 263 263 263 262 262 264 264 261 256
240 239 246 241 248 252 251 254 253 256 259 264 267 266 260 267 267 264 262 258 262 262 262 258 258 264 265 264 263 262 264 264 262 260 260 261 263 264 265 264 263 258 257 259
246 247 249 250 252 253 253 254 257 261 260 262 262 267 272 272 272 273 267 266 264 257 256 263 263 262 263 264 264 263 261 262 264 264 262 259 259 260 260 262 263 262 259 256
244 251 251 252 254 253 255 256 260 261 263 260 266 267 269 269 270 265 267 266 260 261 262 262 262 263 263 263 263 263 262 261 260 261 262 262 261 260 260 260 260 262 263 262
249 248 252 252 251 255 255 256 260 262 262 266 274 274 271 258 255 267 264 260 262 264 266 262 265 264 263 264 263 264 263 261 259 260 259 259 259 259 260 259 259 260 262 266
247 245 251 251 252 253 255 262 264 269 260 259 241 243 255 259 272 268 272 264 264 268 266 265 264 264 264 265 266 264 264 263 261 259 258 259 259 258 258 259 258 257 259 263
271 268 257 262 263 265 263 259 253 252 260 266 270 268 276 283 266 276 280 276 267 266 270 267 266 267 266 264 264 265 264 264 262 260 259 258 258 259 259 259 259 258 257 260
283 278 265 266 264 261 263 259 255 255 266 269 273 272 266 256 247 247 268 282 285 280 271 268 270 270 268 266 263 262 264 264 263 263 261 260 260 259 258 257 257 257 257 257
288 287 284 271 275 272 266 269 268 267 259 268 273 270 259 263 266 262 270 277 281 284 286 282 276 271 271 271 268 264 263 261 260 264 264 263 261 259 258 257 256 254 253 254
293 291 287 286 275 272 272 270 268 260 264 266 269 273 268 264 271 274 274 276 277 277 281 281 278 276 275 273 270 270 267 265 262 260 261 261 263 262 259 258 256 255 254 253
293 290 290 293 288 280 271 268 265 265 266 263 263 268 273 275 276 273 275 275 276 281 281 282 283 283 282 280 278 275 272 269 267 264 261 262 261 262 263 261 257 255 253 252
291 289 286 282 272 247 250 255 258 261 265 269 268 270 270 268 274 275 267 270 278 280 281 283 284 282 281 280 277 273 267 262 263 264 263 264 268 261 260 260 258 256 252 249
296 291 277 275 273 264 257 256 261 267 268 268 273 273 273 273 268 266 270 274 277 280 284 284 282 282 281 278 274 270 266 264 263 267 271 270 274 268 267 265 256 249 256 247
297 295 281 276 272 272 267 264 265 265 269 272 272 275 275 274 270 270 277 281 279 280 280 282 282 283 283 281 277 273 267 266 265 268 273 273 276 271 268 270 258 244 248 229
294 293 284 277 278 277 280 285 277 274 270 271 270 269 263 266 267 281 279 282 281 280 282 283 284 283 280 280 278 275 274 268 265 266 269 268 269 275 269 276 256 246 249 231
296 280 269 276 276 278 284 278 275 266 266 272 275 272 271 274 278 284 287 283 282 285 286 286 285 284 283 280 278 276 274 271 265 264 265 264 262 262 267 266 264 253 243 240
286 281 267 267 270 273 270 270 269 256 279 288 284 275 277 280 282 290 290 293 295 296 295 292 290 286 284 282 280 278 272 270 266 260 259 258 257 256 255 260 258 239 247 243
284 274 270 266 271 273 268 262 262 271 288 287 283 281 286 292 297 297 293 294 294 292 293 292 290 287 283 278 272 272 269 268 263 261 258 259 261 259 256 247 242 242 241 245
274 273 276 269 262 259 261 270 268 281 286 280 275 283 291 293 298 300 300 296 297 296 296 298 297 294 287 277 271 264 264 264 261 256 256 260 260 264 260 252 245 238 236 237
267 271 269 272 259 258 268 277 275 287 282 268 281 294 296 302 300 298 304 311 304 296 294 291 296 295 299 293 275 261 264 259 261 252 251 257 263 266 261 256 249 246 240 237
266 258 255 249 255 263 265 264 269 292 260 278 292 299 305 308 305 311 316 313 302 296 305 314 307 305 312 295 281 267 261 255 257 258 260 265 264 270 262 259 254 247 245 244
264 262 259 252 252 254 258 271 281 253 272 290 304 313 314 314 317 313 300 313 327 334 328 323 318 315 311 307 291 273 267 263 265 267 270 271 270 266 264 260 257 251 247 247
267 271 258 256 256 258 260 259 240 262 285 309 319 321 323 316 311 303 310 316 324 324 319 322 317 316 311 307 303 292 282 280 276 274 272 271 267 263 262 260 258 254 253 249
266 260 253 255 254 248 237 226 248 273 302 317 320 323 327 323 312 317 323 321 322 320 323 314 311 307 305 289 287 291 286 275 273 274 285 283 275 276 267 264 263 261 252 243
Height
5764 5765 5768 5770 5771 5773 5773 5774 5777 5779 5778 5773 5776 5776 5778 5779 5779 5780 5781 5781 5782 5783 5784 5783 5782 5781 5785 5783 5783 5785 5787 5788 5789 5791 5794 5796 5797 5798 5797 5798 5800 5802 5804 5803
5757 5759 5762 5762 5763 5764 5767 5768 5770 5770 5769 5765 5766 5769 5770 5771 5773 5773 5773 5773 5774 5774 5774 5773 5772 5771 5770 5773 5775 5777 5778 5779 5779 5781 5783 5784 5785 5786 5785 5786 5787 5791 5793 5793
5750 5753 5752 5755 5756 5758 5760 5761 5762 5761 5761 5758 5762 5761 5763 5763 5765 5765 5764 5767 5766 5765 5766 5764 5762 5762 5762 5763 5766 5765 5766 5767 5768 5770 5770 5771 5772 5772 5773 5775 5776 5778 5779 5780
5743 5746 5746 5749 5749 5750 5752 5754 5752 5752 5754 5753 5755 5751 5755 5755 5757 5756 5756 5759 5757 5757 5755 5752 5751 5753 5754 5753 5755 5756 5756 5755 5756 5757 5758 5759 5759 5760 5762 5762 5763 5765 5766 5767
5739 5737 5738 5740 5743 5740 5744 5744 5743 5745 5746 5744 5746 5743 5746 5748 5747 5746 5746 5748 5747 5744 5738 5743 5742 5742 5742 5741 5740 5742 5743 5744 5745 5744 5744 5745 5745 5746 5748 5749 5750 5750 5752 5756
5731 5730 5730 5734 5731 5731 5737 5735 5736 5736 5736 5734 5738 5739 5741 5742 5742 5740 5738 5736 5734 5728 5732 5732 5729 5730 5730 5730 5729 5728 5730 5733 5731 5730 5731 5731 5732 5733 5733 5734 5736 5737 5738 5740
5723 5723 5724 5724 5724 5724 5726 5728 5728 5729 5729 5726 5735 5732 5733 5732 5728 5728 5730 5729 5719 5718 5723 5717 5719 5718 5717 5716 5715 5716 5715 5717 5717 5716 5716 5716 5717 5717 5718 5720 5722 5724 5726 5728
5711 5715 5716 5717 5716 5717 5718 5721 5720 5716 5718 5720 5721 5717 5720 5723 5715 5714 5715 5718 5712 5708 5708 5709 5705 5703 5704 5701 5700 5700 5700 5700 5701 5701 5700 5700 5701 5702 5703 5705 5707 5709 5713 5719
5704 5706 5708 5708 5709 5709 5712 5709 5713 5701 5702 5702 5707 5708 5709 5711 5709 5699 5694 5696 5702 5697 5697 5695 5691 5690 5688 5687 5685 5684 5682 5683 5682 5683 5683 5683 5684 5686 5687 5690 5691 5695 5698 5703
5697 5696 5699 5698 5697 5699 5699 5701 5699 5698 5693 5692 5696 5699 5702 5694 5694 5691 5684 5684 5681 5684 5685 5684 5679 5676 5673 5672 5671 5668 5667 5667 5665 5664 5665 5666 5667 5669 5670 5673 5675 5678 5681 5685
5689 5687 5692 5689 5689 5689 5689 5685 5687 5687 5686 5682 5683 5686 5690 5683 5680 5682 5678 5673 5668 5663 5664 5665 5665 5662 5659 5657 5655 5653 5652 5653 5652 5647 5649 5648 5649 5651 5652 5654 5657 5660 5663 5668
5680 5680 5678 5681 5680 5678 5675 5676 5675 5673 5676 5674 5672 5670 5677 5668 5670 5667 5665 5662 5657 5653 5652 5649 5649 5647 5644 5642 5639 5637 5636 5636 5634 5634 5632 5632 5631 5632 5634 5636 5638 5642 5644 5648
5674 5669 5667 5668 5669 5668 5665 5665 5665 5663 5663 5663 5663 5665 5661 5658 5657 5654 5651 5646 5642 5641 5638 5634 5632 5628 5626 5624 5622 5621 5620 5618 5617 5616 5617 5616 5616 5614 5613 5616 5619 5622 5626 5628
5663 5662 5658 5656 5657 5660 5656 5653 5653 5653 5653 5652 5651 5650 5652 5646 5644 5641 5636 5631 5631 5629 5624 5621 5618 5615 5612 5610 5608 5606 5606 5605 5604 5603 5603 5603 5603 5601 5600 5599 5603 5604 5608 5610
5651 5648 5646 5643 5642 5643 5643 5642 5643 5642 5643 5639 5642 5638 5637 5634 5634 5629 5624 5621 5618 5616 5612 5607 5604 5602 5600 5597 5595 5593 5591 5591 5591 5591 5590 5590 5589 5587 5586 5586 5587 5590 5589 5592
5635 5635 5633 5633 5632 5630 5630 5632 5632 5632 5631 5629 5628 5626 5626 5621 5619 5616 5614 5611 5607 5603 5598 5595 5591 5589 5585 5583 5581 5579 5578 5578 5578 5578 5577 5576 5575 5574 5573 5572 5573 5573 5574 5580
5629 5626 5625 5625 5624 5623 5623 5623 5621 5621 5621 5621 5619 5621 5616 5613 5609 5607 5605 5601 5596 5592 5588 5583 5579 5576 5572 5568 5565 5564 5564 5564 5564 5563 5563 5564 5563 5562 5560 5557 5555 5560 5567 5568
5622 5620 5618 5618 5617 5617 5616 5614 5614 5614 5613 5612 5611 5609 5606 5603 5602 5600 5597 5590 5586 5581 5577 5571 5565 5560 5556 5552 5550 5548 5547 5547 5547 5547 5547 5548 5549 5550 5549 5547 5545 5548 5554 5560
5616 5614 5612 5611 5612 5613 5611 5610 5608 5608 5608 5605 5602 5600 5598 5596 5593 5594 5586 5579 5574 5567 5561 5554 5548 5542 5539 5536 5533 5531 5532 5531 5532 5532 5533 5533 5532 5533 5536 5538 5538 5541 5544 5551
5610 5609 5608 5608 5607 5607 5605 5605 5603 5602 5602 5597 5595 5592 5590 5587 5584 5584 5577 5571 5564 5555 5546 5539 5532 5526 5521 5518 5516 5516 5518 5518 5519 5519 5519 5519 5519 5519 5522 5526 5528 5532 5535 5538
5605 5603 5602 5601 5601 5602 5600 5598 5597 5597 5597 5591 5589 5586 5584 5581 5577 5572 5566 5559 5551 5542 5535 5527 5520 5512 5506 5501 5499 5500 5502 5505 5505 5506 5507 5507 5507 5507 5508 5511 5515 5519 5523 5528
5600 5598 5597 5596 5596 5596 5594 5593 5592 5591 5588 5586 5584 5581 5577 5573 5568 5562 5556 5548 5540 5533 5524 5516 5508 5502 5496 5490 5486 5487 5489 5490 5491 5494 5495 5496 5496 5495 5495 5496 5499 5504 5508 5513
5594 5592 5591 5591 5591 5589 5588 5586 5584 5585 5583 5581 5579 5575 5569 5565 5559 5553 5546 5541 5532 5522 5513 5504 5497 5493 5486 5480 5476 5477 5478 5477 5479 5482 5483 5484 5484 5483 5482 5483 5485 5487 5492 5497
5585 5585 5583 5582 5583 5582 5579 5579 5579 5578 5578 5576 5572 5567 5561 5556 5550 5544 5540 5532 5523 5516 5508 5499 5492 5486 5480 5474 5470 5469 5469 5470 5471 5472 5472 5471 5470 5469 5469 5469 5470 5473 5477 5482
5578 5576 5576 5575 5576 5575 5572 5573 5574 5574 5573 5570 5565 5559 5554 5548 5545 5539 5533 5524 5517 5510 5502 5494 5487 5482 5476 5471 5467 5465 5464 5463 5462 5461 5459 5456 5454 5455 5455 5455 5457 5459 5463 5466
5569 5568 5569 5569 5569 5567 5567 5569 5570 5570 5568 5563 5559 5556 5549 5541 5538 5533 5526 5518 5511 5503 5495 5488 5481 5475 5471 5466 5461 5458 5456 5454 5452 5450 5447 5445 5442 5441 5440 5440 5442 5443 5447 5450